{"data":{"norad_id":50470,"intl_designator":"2021-132B","name":"ONEWEB-0390","alt_names":[],"object_type":"PAYLOAD","status":"ACTIVE","operator":null,"country":"UK","launch_date":"2021-12-27","launch_site_code":"TYMSC","launch_vehicle":null,"mission":null,"orbit_class":"UNKNOWN","rcs_meters":null,"size_class":null,"mass_kg":null,"dimensions":null,"purposes":["comms"],"wikipedia_slug":null,"has_3d_model":false,"image_url":null,"decayed_at":null,"tle_current":{"epoch":"2026-09-20T04:43:01.375680Z","epoch_age_seconds":52102,"freshness":"FRESH","line1":"1 50470U 21132B   26263.19654370  .00000054  00000+0  10554-3 0  9995","line2":"2 50470  87.9198 347.0028 0001660 105.0425 255.0890 13.17650589230597","mean_motion":13.17650589,"eccentricity":0.000166,"inclination_deg":87.9198,"raan_deg":347.0028,"arg_perigee_deg":105.0425,"mean_anomaly_deg":255.089,"bstar":0.00010554,"rev_number":23059,"period_min":109.28542149348,"perigee_km":1192.450246294,"apogee_km":1194.9640985593,"semimajor_km":7571.8441724267,"source":"CELESTRAK","updated_at":"2026-09-20T09:00:44.676580Z"}}}